Regional Weather Roundup
Issued by NWS

Home | Current Version | Previous Version | Text Only | Print | Product List | Glossary Off
Versions: 1 2 3 4 5 6 7 8 9 10 11 12 13 14 15 16 17 18 19 20 21 22 23 24 25 26 27 28 29 30 31 32 33 34 35 36 37 38 39 40 41 42 43 44 45 46 47 48 49 50

000
ASUS43 KMKX 261400
RWRWI

WISCONSIN REGIONAL WEATHER ROUNDUP
NATIONAL WEATHER SERVICE MILWAUKEE/SULLIVAN WI
900 AM CDT SUN APR 26 2015

NOTE: "FAIR" INDICATES FEW OR NO CLOUDS BELOW 12,000 FEET WITH NO
SIGNIFICANT WEATHER AND/OR OBSTRUCTIONS TO VISIBILITY.

WIZ001-002-006>008-014>016-023>028-261500-
NORTHWEST WISCONSIN

CITY           SKY/WX    TMP DP  RH WIND       PRES   REMARKS
SUPERIOR ARPT  SUNNY     38  29  72 CALM      30.17R
ASHLAND        SUNNY     40  26  57 CALM      30.17R
HAYWARD        SUNNY     42  23  46 NE8       30.13R
SIREN          SUNNY     39  24  55 E5        30.13R
CUMBERLAND     SUNNY     39  23  52 E3        30.11R
RICE LAKE      SUNNY     40  22  49 CALM      30.13R
CHETEK         SUNNY     41  22  47 N5        30.12R
LADYSMITH      SUNNY     41  24  50 NE6       30.12R
EAU CLAIRE     NOT AVBL
MENOMONIE      SUNNY     43  24  48 NE6       30.11R
NEW RICHMOND   SUNNY     42  24  49 E7        30.11R
OSCEOLA        SUNNY     43  25  50 E5        30.14R
$$

WIZ003>005-009-010-017-018-261500-
NORTH CENTRAL WISCONSIN

CITY           SKY/WX    TMP DP  RH WIND       PRES   REMARKS
MANITOWISH WTR SUNNY     40  20  44 N3        30.10R
ARBOR VITAE    SUNNY     42  21  43 N5        30.09R
WOODRUFF       SUNNY     42  21  43 N5        30.09R
RHINELANDER    SUNNY     43  20  39 N6        30.08R
EAGLE RIVER    SUNNY     43  18  36 N5        30.07S
LAND O LAKES   SUNNY     42  19  39 N3        30.09S
PHILLIPS       SUNNY     39  21  48 NE7       30.09S WCI  34
TOMAHAWK       SUNNY     39  22  50 CALM      30.09S
MEDFORD        SUNNY     41  23  49 NE9       30.08R
MERRILL        SUNNY     41  23  49 CALM      30.08R
$$

WIZ029-030-035-036-043>047-261500-
CENTRAL WISCONSIN

CITY           SKY/WX    TMP DP  RH WIND       PRES   REMARKS
WAUSAU         SUNNY     44  23  43 NW6       30.07R
MOSINEE        SUNNY     43  21  42 N3        30.09R
MARSHFIELD     SUNNY     44  23  43 NE7       30.08R
STEVENS POINT  SUNNY     42  20  42 NE7       30.08R
WAUPACA        SUNNY     45  21  38 NE7       30.07R
WAUTOMA        NOT AVBL
WISC RAPIDS    SUNNY     45  19  35 E5        30.10R
CAMP DOUGLAS   NOT AVBL
$$

WIZ011>013-019>022-031-037>040-048>050-261500-
NORTHEAST WISCONSIN

CITY           SKY/WX    TMP DP  RH WIND       PRES   REMARKS
ANTIGO         SUNNY     39  23  52 NE7       30.07R WCI  34
SHAWANO        SUNNY     45  22  39 NE5       30.07S
OCONTO         SUNNY     42  24  47 N7        30.06R
STURGEON BAY   SUNNY     39  27  60 NW6       30.07S WCI  35
GREEN BAY      SUNNY     45  24  43 N8        30.06R
MANITOWOC      NOT AVBL
APPLETON       SUNNY     43  21  42 N9        30.06R
CLINTONVILLE   SUNNY     41  21  45 N7        30.07R
OSHKOSH        SUNNY     44  24  45 N6        30.06R
$$

WIZ032>034-041-042-053>061-261500-
SOUTHWEST WISCONSIN

CITY           SKY/WX    TMP DP  RH WIND       PRES   REMARKS
LA CROSSE      SUNNY     46  24  42 CALM      30.09R
SPARTA         SUNNY     42  22  45 E7        30.09R
VIROQUA        SUNNY     42  25  52 NE7       30.06R
BOSCOBEL       SUNNY     44  27  51 NE6       30.08R
PRAIRIE DU CHI SUNNY     40  27  59 CALM      30.06R
PLATTEVILLE    SUNNY     42  28  58 NE12      30.03R
$$

WIZ056-057-062-063-064-067-068-261500-
SOUTH CENTRAL WISCONSIN

CITY           SKY/WX    TMP DP  RH WIND       PRES   REMARKS
REEDSBURG      SUNNY     39  25  56 E6        30.07R WCI  35
BARABOO/DELLS  SUNNY     39  24  55 NE5       30.07R
LONE ROCK      NOT AVBL
MINERAL POINT  SUNNY     43  28  56 NE10      30.04R
MADISON        MOSUNNY   44  29  55 NE5       30.06R
MIDDLETON      SUNNY     42  29  59 NE3       30.06R
WATERTOWN      SUNNY     42  27  56 N3        30.04R
MONROE         SUNNY     41  30  65 NE10      30.04R
JANESVILLE     SUNNY     45  28  53 NE8       30.04R
$$

WIZ051-052-058>065-066-070>072-261500-
SOUTHEAST WISCONSIN

CITY           SKY/WX    TMP DP  RH WIND       PRES   REMARKS
MILWAUKEE      SUNNY     42  29  59 NE15      30.04R
WAUKESHA       SUNNY     43  27  52 NE7       30.04R
MILWAUKEE/TIMM SUNNY     45  25  45 N8        30.04R
RACINE         SUNNY     43  31  62 N15       30.05R
BURLINGTON     SUNNY     42  29  60 N7        30.02R
KENOSHA        SUNNY     46  33  60 N10       30.02R
FOND DU LAC    SUNNY     44  27  51 NE8       30.06R
SHEBOYGAN      SUNNY     44  27  51 N8        30.04R
WEST BEND      SUNNY     43  25  49 N5        30.04R
JUNEAU         SUNNY     41  27  56 N7        30.06R
$$

LSZ147-162-261500-
LAKE SUPERIOR

STATION/POSITION TIME  TEMP    WIND        PRES    WAVE
                       AIR SEA DIR/SP/G            HT/PER
                 (UTC) (F)     (DEG/KT/KT) (MB)    (FT/S)
W MID LAKE BUOY  1250   36 34   30/ 10/ 12 1022.3R   1/ 3
DEVILS ISLAND    1300   37      40/  7/  7 1021.8R
PORT WING        1340   35     320/  2/  3 1021.7R
SAXON HARBOR     1340   37        CALM     1021.0R
$$

LMZ867-665-643>646-261500-
LAKE MICHIGAN

STATION/POSITION TIME  TEMP    WIND        PRES    WAVE
                       AIR SEA DIR/SP/G            HT/PER
                 (UTC) (F)     (DEG/KT/KT) (MB)    (FT/S)
CHAMBERS ISLAND  1300   40     330/  4/  6 1017.9R
NORTHPORT PIER   1300   37     340/ 13/ 15 1017.6R
SISTER BAY       1347   42     340/ 15/ 17   N/A
KEWAUNEE LAKESHO 1300   39     330/  4/ 10 1016.5R
SHEBOYGAN LAKESH 1300   39      10/ 14/ 15 1017.7R
PORT WASHINGTON  1300   42      20/  5/  9 1017.6
MILWAUKEE LAKESH 1300   40      10/ 14/ 17   N/A
KENOSHA   LAKESH 1300   40      10/ 13/ 15 1016.3R
$$

TC  - TEMPERATURE IN CELSIUS
VSB - VISIBILITY IN STATUTE MILES
WCI - WIND CHILL INDEX
HX  - HEAT INDEX




USA.gov is the U.S. government's official web portal to all federal, state and local government web resources and services.